PROMETHEUS 2-7 (44374 NORAD) Tracking and Keplerian Element Data

This shows tracking and keplerian element data for the satellite.

Feedback or suggestion? Click here.




ElementValue
Catalog44374
NamePROMETHEUS 2-7
Epoch Orbit308
Epoch Day201.39497441
Epoch Year2019
RAAN171.8268
Inclination45.0131
Eccentricity0.0008182
Argument of Perigee34.6169
Mean Anonmoly325.5303
Mean Motion15.37377872
Decay Rate-3.36E-06
L11 44374U 19037K 19201.39497441 -.00000336 00000-0 00000-0 0 9999
L22 44374 45.0131 171.8268 0008182 34.6169 325.5303 15.37377872 3081

Live tracking and technical data element details for PROMETHEUS 2-7 (NORAD 44374). PROMETHEUS 2-7 can be tracked NOW for your location showing map with azimuth and elevation plus other details from your city location.

Track the satellite on the map from your city or location and see movement details for azimuth, elevation, latitude, longitude, range, height, and movement on the map or in text.







IsCatalogInMostPopularTable: catalog: 44374, numindb: 3
Update: records affected: 1



GetName: 44374 PROMETHEUS 2-7

Hit Count: updated at: Sun, 21 Jul 2019 21:45:04 GMT